STARLINK-32734, 62476

Orbit data source: Space-Track

STARLINK-32734, 62476 is a payload satellite owned by SpaceX/Seattle (US) in LEO that was launched on Tue, 31 Dec 2024 UTC via an FALCON 9 launch vehicle from the Air Force Eastern Test Range (AFETR). Payload-class satellites include a variety of spacecraft equipped with specific instruments for various scientific and technological missions. These include communications satellites like Starlink; space stations such as the ISS; scientific satellites like the Hubble; Earth observation satellites from companies like Planet Labs, Umbra, and HawkEye 360; GPS; miniature CubeSats for education and research; and military/defense satellites.

Loading next visibility...
Identifier
62476, 2024-254Q
Orbit
LEO
Country
Flag of USUS
Related business
Manufacturer
SpaceX/Seattle
Mission
Operational Commercial Communications
Bus & Motor
STARLINK V2M, Unknown motor
Mass
730 kg wet, ~700 kg dry
Launch date (UTC)
2024-12-31 (10 months ago)
Launch vehicle
FALCON 9
Launch site
Air Force Eastern Test Range (AFETR)
Object type
Payload
Rocket body
Debris
Shape & HBR
Box + 2 Pan, 17.7 m
Radar Cross Section
33.884 m², Large (>1 m²)

Expand to show TLE details & history
Last TLE update: 1 day ago

TLE from 1 day ago
0 STARLINK-32734
1 62476U 24254Q   25308.49003976  .00026082  00000-0  95365-3 0  9997
2 62476  43.0048   3.5806 0001348 272.2545  87.8152 15.27591467 48506
Epoch: 2025-11-04T11:45Z
TLE epoch observation values (Epoch: 2025-11-04T11:45:39.435Z)
Latitude
-0.00003°
Longitude
143.18994°
Altitude
482.756 km
Speed
7.626 km/s
True Right ascension
00h 14m 19s
True Declination
0° 00' 00"
Sunlit
Object was in full shadow at epoch
Visualization orbit readout
Latitude
Unknown
Longitude
Unknown
Altitude
Unknown
Speed
Unknown
Apparent Right ascension
Unknown
Apparent Declination
Unknown
Sunlit
N/A
Visualization observer readout
Local Sidereal Time
10:08:18
Azimuth
Unknown
Elevation
Unknown
Doppler factor
Unknown
Orbital elements
Apogee altitude
485.884 km
Perigee altitude
484.034 km
Semi-major axis
6,863.096 km
Eccentricity
0.00013
Inclination
43.0048°
RAAN
3.5806°
Arg. of periapsis
272.2545°
True anomaly
87.83064°
Mean anomaly
87.8152°
Eccentric anomaly
87.82292°
Mean motion
3.81736 °/min
Orbital period
94.31 mins
BSTAR
0.00095365
Loading maneuver chart data...
Computing Atmospheric mass density...
Loading historical data...
Loading historical data...
Loading historical data...
Loading historical data...
Loading historical data...
Loading historical data...
Loading historical data...

Documentation

Showing up to 5 results
|